TimeCDT,TemperatureF,Dew PointF,Humidity,Sea Level PressureIn,VisibilityMPH,Wind Direction,Wind SpeedMPH,Gust SpeedMPH,PrecipitationIn,Events,Conditions,WindDirDegrees,DateUTC
12:54 AM,70.0,68.0,93,30.06,10.0,Calm,Calm,-,N/A,,Clear,0,2013-05-24 05:54:00
1:54 AM,68.0,66.0,93,30.05,10.0,North,3.5,-,N/A,,Clear,350,2013-05-24 06:54:00
2:54 AM,68.0,66.0,93,30.06,10.0,North,3.5,-,N/A,,Clear,350,2013-05-24 07:54:00
3:54 AM,68.0,64.9,90,30.06,10.0,Calm,Calm,-,N/A,,Clear,0,2013-05-24 08:54:00
4:54 AM,68.0,64.0,87,30.07,10.0,NE,5.8,-,N/A,,Clear,40,2013-05-24 09:54:00
5:54 AM,68.0,62.1,81,30.11,10.0,NE,9.2,-,N/A,,Clear,40,2013-05-24 10:54:00
6:54 AM,68.0,62.1,81,30.14,10.0,NNE,8.1,-,N/A,,Clear,30,2013-05-24 11:54:00
7:54 AM,69.1,60.1,73,30.17,10.0,NE,8.1,-,N/A,,Clear,40,2013-05-24 12:54:00
8:54 AM,70.0,59.0,68,30.19,10.0,NE,9.2,-,N/A,,Mostly Cloudy,50,2013-05-24 13:54:00
9:54 AM,73.0,59.0,61,30.20,10.0,NNE,9.2,-,N/A,,Scattered Clouds,30,2013-05-24 14:54:00
10:54 AM,75.9,60.1,58,30.21,10.0,East,6.9,-,N/A,,Partly Cloudy,100,2013-05-24 15:54:00
11:54 AM,75.9,61.0,60,30.21,10.0,North,5.8,-,N/A,,Scattered Clouds,360,2013-05-24 16:54:00
12:54 PM,80.1,62.1,54,30.20,10.0,NNW,10.4,17.3,N/A,,Partly Cloudy,340,2013-05-24 17:54:00
1:54 PM,82.0,62.1,51,30.20,10.0,North,11.5,17.3,N/A,,Partly Cloudy,360,2013-05-24 18:54:00
2:54 PM,82.9,62.1,49,30.18,10.0,Variable,6.9,-,N/A,,Partly Cloudy,0,2013-05-24 19:54:00
3:54 PM,82.9,61.0,47,30.17,10.0,North,8.1,-,N/A,,Partly Cloudy,10,2013-05-24 20:54:00
4:54 PM,82.9,60.1,46,30.15,10.0,NNE,5.8,-,N/A,,Partly Cloudy,20,2013-05-24 21:54:00
5:54 PM,82.0,60.1,47,30.14,10.0,North,10.4,-,N/A,,Partly Cloudy,360,2013-05-24 22:54:00
6:54 PM,80.1,57.9,47,30.13,10.0,NNE,9.2,-,N/A,,Partly Cloudy,30,2013-05-24 23:54:00
7:54 PM,73.9,59.0,59,30.15,10.0,NE,4.6,-,N/A,,Clear,40,2013-05-25 00:54:00
8:54 PM,71.1,57.0,61,30.17,10.0,NE,5.8,-,N/A,,Clear,40,2013-05-25 01:54:00
9:54 PM,69.1,55.9,63,30.19,10.0,ENE,6.9,-,N/A,,Clear,60,2013-05-25 02:54:00
10:54 PM,66.0,54.0,65,30.19,10.0,ENE,6.9,-,N/A,,Clear,70,2013-05-25 03:54:00
11:54 PM,64.0,54.0,70,30.20,10.0,East,4.6,-,N/A,,Clear,80,2013-05-25 04:54:00